254  
ASUS44 KEWX 070211  
RWRTX  
SOUTH TEXAS REGIONAL WEATHER ROUNDUP  
NATIONAL WEATHER SERVICE AUSTIN/SAN ANTONIO TX  
900 PM CDT MON JUL 06 2015  
 
NOTE: "FAIR" INDICATED FEW OR NO CLOUDS BELOW 12,000 FEET WITH NO  
SIGNIFICANT WEATHER AND/OR S TO VISIBILITY
.  
 
* - THESE STATIONS ARE NOT NWS OR FAA STATIONS...AND ARE NOT SUBJECT  
TO NWS AND FAA QUALITY CONTROL.
 
 
TXZ171-172-183>190-070300-  
TEXAS HILL COUNTRY AND EDWARDS PLATEAU  
 
CITY SKY/WX TMP DP RH WIND PRES REMARKS
 
JUNCTION PTCLDY 84 66 54 S14 29.95R  
*LLANO PTCLDY 84 68 58 S10 29.97R  
BURNET CLEAR 83 68 60 S12G20 29.96R  
*HORSESHOE BAY CLEAR 83 69 61 S8G17 29.94R  
*KERRVILLE PTCLDY 80 71 74 S13G18 29.98R  
*FREDERICKSBRG CLEAR 80 67 65 S12G21 29.97S  
*ROCKSPRINGS PTCLDY 81 66 61 SE9G17 30.00S  
*BOERNE STAGE CLEAR 79 70 73 S9G18 29.98R  
*CASTROVILLE PTCLDY 82 70 66 SE9 29.96R  
HONDO MOCLDY 83 73 72 SE15G21 29.96R  
*UVALDE PTCLDY 84 70 63 SE13 29.91S  
DEL RIO PTCLDY 89 68 49 E13 29.86F HX 93  
LAUGHLIN AFB PTCLDY 87 72 61 SE9 29.88S HX 93  
CARRIZO SPRGS PTCLDY 88 70 55 SE10G21 29.87R HX 92  

 
 
TXZ173-191>194-202-209-217>225-228-070300-  
CENTRAL AND SOUTH CENTRAL TEXAS  
 
CITY SKY/WX TMP DP RH WIND PRES REMARKS
 
GEORGETOWN PTCLDY 84 68 58 MISG 29.92R  
AUSTIN/BERGSTM PTCLDY 81 72 74 S12 29.93R  
AUSTIN/MABRY CLEAR 83 70 64 VRB7G18 29.94R  
*AUSTIN/EXEC PTCLDY 82 72 69 S9G16 29.94R  
*LAGO VISTA CLEAR 82 69 65 S14G21 29.96S  
SAN MARCOS CLEAR 82 70 65 S13G20 29.94S  
NEW BRAUNFELS CLEAR 82 73 74 S10 29.93S  
RANDOLPH AFB CLEAR 81 72 74 S13 29.95R  
PT SAN ANTONIO PTCLDY 82 73 73 SE15 29.93R  
SAN ANTONIO PTCLDY 83 72 69 SE17 29.94S  
STINSON FIELD PTCLDY 83 73 72 SE15G23 29.92S  
*PLEASANTON PTCLDY 82 73 72 SE8 29.93S  
*LA GRANGE CLEAR 83 76 79 S9 29.93S HX 90  
*GIDDINGS CLEAR 82 72 72 S8 29.98R  
*GONZALES PTCLDY 82 75 78 S9 29.93S  

 
 
TXZ163>164-176>182-195>201-210>213-226-227-235-070300-  
SOUTHEAST TEXAS  
 
CITY SKY/WX TMP DP RH WIND PRES REMARKS
 
COLLEGE STN CLEAR 83 72 69 S12 29.93S  
*BRYAN CLEAR 83 73 72 S10G22 29.94R  
*CALDWELL CLEAR 81 73 78 S9 29.97R  
*CROCKETT CLEAR 84 77 79 SE9 29.97R HX 94  
*BRENHAM CLEAR 84 74 72 S10G17 29.94S HX 92  
HUNTSVILLE CLEAR 84 71 65 S6 29.94F  
CONROE PTCLDY 83 72 69 S12 29.95F  
HOUSTON BUSH MOCLDY 84 73 69 S14 29.96F HX 90  
HOUSTON HOBBY PTCLDY 83 75 77 S9 29.96F HX 90  
*HOUSTON SW AP CLEAR 75 71 87 SE5 29.97S  
PEARLAND CLEAR 84 75 74 S8 29.98F HX 92  
HOUSTON HOOKS CLEAR 84 73 69 S9 29.95F HX 90  
ELLINGTON FLD NOT AVBL  
SUGAR LAND CLEAR 83 74 74 S12 29.95F  
*HOUSTON EXEC CLEAR 81 75 83 S9 29.96F  
*CLEVELAND MUN CLEAR 80 76 86 S5 29.97S  
*WHARTON CLEAR 80 76 87 SE7 29.96F  
*COLUMBUS FAIR 81 74 80 S7 29.94F  

 
 
TXZ214>216-236>238-070300-  
THE UPPER TEXAS COAST  
 
CITY SKY/WX TMP DP RH WIND PRES REMARKS
 
*ORANGE PTCLDY 83 72 70 S7 30.00F  
PORT ARTHUR PTCLDY 82 76 81 S10 29.98F  
GALVESTON PTCLDY 84 78 82 S16 29.99F HX 95  
ANGLETON PTCLDY 83 77 82 S10 29.97F HX 92  
*BAY CITY PTCLDY 83 78 86 S8 29.96F HX 92  
PALACIOS MOCLDY 84 77 79 S13 29.95F HX 94  

 
 
TXZ229>234-239>247-070300-  
TEXAS COASTAL BEND AND RIO GRANDE PLAINS  
 
CITY SKY/WX TMP DP RH WIND PRES REMARKS
 
VICTORIA PTCLDY 82 77 84 S13 29.95S HX 90  
*BEEVILLE CLEAR 81 79 94 SE12 29.93F  
ROCKPORT LGT RAIN 83 78 85 SE12 29.93F HX 93  
*PORT ARANSAS CLOUDY 82 79 92 S10 29.95R HX 91  
*PORT LAVACA CLEAR 81 77 89 SE10 29.95S  
*INGLESIDE MOCLDY 83 78 85 S13G21 29.94S HX 94  
CORPUS CHRISTI MOCLDY 83 77 82 SE15G23 29.94S HX 92  
CORPUS NAS CLOUDY 82 79 90 S18 29.94S HX 92  
*ROBSTOWN PTCLDY 83 77 82 SE13G20 29.94S HX 93  
ALICE CLEAR 82 77 84 SE12G29 29.91F HX 90  
KINGSVILLE NAS MOCLDY 83 80 91 SE14 29.93S HX 95  
COTULLA LGT RAIN 88 70 55 SE16G22 29.89F HX 93  
*FAITH RANCH N/A 90 68 48 SE15G23 29.87S HX 93  
LAREDO PTCLDY 90 71 53 SE16 29.90R HX 96  

 
 
TXZ248>255-070300-  
DEEP SOUTH TEXAS  
 
CITY SKY/WX TMP DP RH WIND PRES REMARKS
 
BROWNSVILLE MOCLDY 83 79 88 S15 29.95S HX 94  
PORT ISABEL PTCLDY 83 78 85 SE16 29.94S HX 93  
*SOUTH PADRE PTCLDY 81 77 89 SW9 29.95S  
HARLINGEN PTCLDY 84 77 79 SE16G23 29.93R HX 94  
*HEBBRONVILLE N/A 84 71 64 SE13 29.93S  
MCALLEN PTCLDY 86 75 69 SE13G24 29.93R HX 95  
*WESLACO PTCLDY 83 74 73 S14G21 29.93S HX 90  
FALFURRIAS CLEAR 84 74 71 SE10 29.91F HX 91  
EDINBURG PTCLDY 85 74 70 SE10 29.93S HX 93  
*ZAPATA PTCLDY 88 69 53 SE15G24 29.89R HX 92  

 
 
TXZ213>215-236>238-242>244-246-247-251-254-255-070300-  
CMAN STATIONS  
 
STATION/POSITION TIME TEMP WIND PRES WAVE
 
AIR SEA DIR/SP/G HT/PER  
(UTC) (F) (DEG/KT/KT) (MB) (FT/S)  

 
 
GMZ080-GMZ150>470-070300-  
OFFSHORE BUOY REPORTS  
 
STATION/POSITION TIME TEMP WIND PRES WAVE
 
AIR SEA DIR/SP/G HT/PER  
(UTC) (F) (DEG/KT/KT) (MB) (FT/S)  

 
 
CLICK HERE TO GO TO PREVIOUS BULLETINS.

The Nexlab TX Page Main Text Page